period_start,C,m1,H,J0,J1,J2,J3,J4,J5,JA,JB,JC,JD,JJ,JK,JN,#
2013-12-22 00:00:05,0.19,1.81,0.00,24.85,27.47,30.16,6.04,31.79,1026.87,2040.00,2851.73,2804.13,3049.73,349.57,324.59,9.42,0000 0000 0000 0000 000000
2013-12-22 00:01:05,0.17,1.81,0.00,24.92,27.47,30.19,5.74,31.63,1026.87,2040.00,2851.31,2803.97,3049.28,348.28,323.53,9.42,0000 0000 0000 0000 000000
2013-12-22 00:02:05,0.18,1.81,0.00,24.93,27.47,30.19,5.93,31.71,1026.88,2040.00,2851.09,2803.62,3049.05,350.24,324.95,9.43,0000 0000 0000 0000 000000
2013-12-22 00:03:06,0.16,1.82,0.00,24.93,27.47,30.17,6.02,31.63,1026.87,2040.00,2850.84,2803.24,3048.55,351.29,325.84,9.44,0000 0000 0000 0000 000000
2013-12-22 00:04:06,0.22,1.82,0.00,24.88,27.47,30.13,6.00,31.42,1026.87,2040.00,2850.34,2803.08,3048.20,350.60,326.03,9.44,0000 0000 0000 0000 000000
2013-12-22 00:05:06,0.18,1.82,0.00,24.86,27.47,30.15,5.87,31.88,1026.87,2040.00,2850.02,2802.85,3048.06,349.46,325.02,9.45,0000 0000 0000 0000 000000
2013-12-22 00:06:06,0.14,1.82,0.00,24.94,27.47,30.14,5.89,31.88,1026.89,2040.00,2849.45,2802.37,3047.70,349.63,324.77,9.45,0000 0000 0000 0000 000000
2013-12-22 00:07:06,0.29,1.82,0.00,24.90,27.47,30.12,5.97,31.46,1026.89,2040.00,2849.13,2802.12,3047.27,349.73,324.90,9.46,0000 0000 0000 0000 000000
2013-12-22 00:08:07,0.17,1.82,0.00,24.87,27.47,30.16,6.04,31.83,1026.93,2040.01,2848.64,2801.98,3047.09,350.03,325.22,9.47,0000 0000 0000 0000 000000
2013-12-22 00:09:07,0.16,1.82,0.00,24.84,27.47,30.17,6.01,31.88,1026.89,2040.00,2848.26,2801.53,3046.79,350.80,325.96,9.47,0000 0000 0000 0000 000000
2013-12-22 00:10:07,0.23,1.82,0.00,24.80,27.47,30.14,5.92,31.50,1026.88,2040.00,2847.98,2801.19,3046.32,349.48,324.77,9.48,0000 0000 0000 0000 000000
2013-12-22 00:11:07,0.20,1.83,0.00,24.80,27.47,30.14,6.02,31.71,1026.91,2040.00,2847.44,2801.03,3046.10,349.75,325.05,9.48,0000 0000 0000 0000 000000
2013-12-22 00:12:08,0.17,1.83,0.00,24.85,27.47,30.13,5.99,32.13,1026.92,2040.00,2847.16,2800.69,3045.80,349.92,325.16,9.49,0000 0000 0000 0000 000000
2013-12-22 00:13:08,0.19,1.83,0.00,24.82,27.47,30.11,6.12,31.75,1026.94,2040.01,2846.80,2800.27,3045.33,350.36,325.53,9.49,0000 0000 0000 0000 000000
2013-12-22 00:14:08,0.25,1.83,0.00,24.83,27.47,30.13,5.96,31.58,1026.95,2040.01,2846.30,2800.09,3045.11,349.82,325.08,9.50,0000 0000 0000 0000 000000
2013-12-22 00:15:08,0.16,1.83,0.00,24.81,27.47,30.15,6.08,31.63,1026.93,2040.00,2845.82,2799.91,3044.93,350.48,325.72,9.51,0000 0000 0000 0000 000000
2013-12-22 00:16:09,0.15,1.83,0.00,24.94,27.47,30.19,5.94,31.54,1026.91,2040.00,2845.30,2799.46,3044.47,349.72,324.86,9.51,0000 0000 0000 0000 000000
2013-12-22 00:17:09,0.28,1.83,0.00,24.90,27.47,30.14,6.04,31.50,1026.95,2040.00,2845.09,2799.17,3044.17,350.16,325.31,9.52,0000 0000 0000 0000 000000
2013-12-22 00:18:09,0.15,1.83,0.00,24.88,27.47,30.11,6.00,31.92,1026.95,2040.01,2844.83,2799.01,3043.90,349.89,325.10,9.52,0000 0000 0000 0000 000000
2013-12-22 00:19:09,0.14,1.83,0.00,24.86,27.47,30.13,5.99,31.29,1026.98,2040.00,2844.35,2798.61,3043.39,350.85,326.01,9.53,0000 0000 0000 0000 000000
2013-12-22 00:20:10,0.26,1.84,0.00,24.74,27.47,30.11,6.13,31.92,1027.00,2040.00,2844.07,2798.23,3043.13,350.43,325.76,9.54,0000 0000 0000 0000 000000
2013-12-22 00:21:10,0.18,1.84,0.00,24.69,27.47,30.11,6.08,31.75,1026.99,2040.00,2843.52,2798.06,3042.92,350.56,325.94,9.54,0000 0000 0000 0000 000000
2013-12-22 00:22:10,0.17,1.84,0.00,24.60,27.48,30.10,5.91,31.38,1027.07,2040.00,2843.19,2797.84,3042.41,350.42,325.92,9.55,0000 0000 0000 0000 000000
2013-12-22 00:23:10,0.18,1.84,0.00,24.58,27.48,30.09,6.00,31.54,1027.14,2040.00,2842.91,2797.38,3042.15,349.17,324.81,9.55,0000 0000 0000 0000 000000
2013-12-22 00:24:11,0.20,1.84,0.00,24.63,27.47,30.11,5.97,31.25,1027.18,2040.00,2842.39,2797.14,3041.98,349.93,325.59,9.56,0000 0000 0000 0000 000000
2013-12-22 00:25:11,0.17,1.84,0.00,24.60,27.48,30.11,5.86,31.25,1027.15,2040.00,2842.13,2797.02,3041.51,350.05,326.16,9.56,0000 0000 0000 0000 000000
2013-12-22 00:26:11,0.15,1.84,0.00,24.75,27.47,30.14,6.05,31.63,1027.18,2040.00,2841.86,2796.68,3041.18,350.36,325.75,9.57,0000 0000 0000 0000 000000
2013-12-22 00:27:12,0.17,1.84,0.00,24.78,27.47,30.17,6.02,31.21,1027.06,2040.00,2841.38,2796.26,3041.06,349.73,325.09,9.58,0000 0000 0000 0000 000000
2013-12-22 00:28:12,0.21,1.84,0.00,24.74,27.48,30.14,5.93,31.46,1027.00,2040.00,2841.03,2796.08,3040.72,349.80,325.17,9.58,0000 0000 0000 0000 000000
2013-12-22 00:29:12,0.16,1.85,0.00,24.72,27.48,30.11,5.97,31.25,1027.05,2040.00,2840.57,2795.94,3040.27,351.03,325.92,9.59,0000 0000 0000 0000 000000
2013-12-22 00:30:12,0.20,1.85,0.00,24.77,27.48,30.14,5.90,31.33,1027.07,2040.00,2840.21,2795.50,3040.09,349.57,324.95,9.59,0000 0000 0000 0000 000000
2013-12-22 00:31:13,0.19,1.85,0.00,24.79,27.48,30.11,6.01,31.38,1027.15,2040.00,2839.98,2795.19,3039.86,350.22,325.97,9.60,0000 0000 0000 0000 000000
2013-12-22 00:32:13,0.17,1.85,0.00,24.72,27.48,30.18,5.96,31.13,1027.23,2040.00,2839.44,2795.02,3039.35,350.13,325.69,9.61,0000 0000 0000 0000 000000
2013-12-22 00:33:13,0.21,1.85,0.00,24.84,27.48,30.12,5.97,30.96,1027.24,2040.00,2839.16,2794.66,3039.13,349.57,324.94,9.61,0000 0000 0000 0000 000000
2013-12-22 00:34:14,0.18,1.85,0.00,24.89,27.48,30.10,6.06,31.21,1027.25,2040.00,2838.68,2794.26,3038.90,350.70,325.93,9.62,0000 0000 0000 0000 000000
2013-12-22 00:35:14,0.22,1.85,0.00,24.87,27.48,30.11,6.03,31.50,1027.22,2040.00,2838.22,2794.08,3038.38,350.32,325.58,9.62,0000 0000 0000 0000 000000
2013-12-22 00:36:14,0.23,1.85,0.00,24.89,27.48,30.12,6.02,31.29,1027.22,2040.00,2837.62,2793.66,3038.13,350.69,326.16,9.63,0000 0000 0000 0000 000000
2013-12-22 00:37:15,0.23,1.86,0.00,24.94,27.48,30.11,5.94,31.54,1027.22,2040.00,2837.21,2793.26,3037.98,349.47,325.06,9.64,0000 0000 0000 0000 000000
2013-12-22 00:38:15,0.21,1.86,0.00,24.90,27.49,30.14,5.88,31.25,1027.27,2040.00,2836.75,2793.09,3037.51,349.44,324.66,9.64,0000 0000 0000 0000 000000
2013-12-22 00:39:15,0.19,1.86,0.00,24.93,27.48,30.16,5.94,31.79,1027.25,2040.00,2836.27,2792.80,3037.19,349.99,325.00,9.65,0000 0000 0000 0000 000000
2013-12-22 00:40:15,0.20,1.86,0.00,24.96,27.48,30.15,5.95,31.29,1027.28,2040.00,2835.93,2792.37,3037.06,349.73,325.27,9.65,0000 0000 0000 0000 000000
2013-12-22 00:41:16,0.20,1.86,0.00,24.92,27.48,30.15,6.03,31.88,1027.27,2040.00,2835.39,2792.14,3036.62,349.62,324.65,9.66,0000 0000 0000 0000 000000
2013-12-22 00:42:16,0.21,1.86,0.00,24.85,27.48,30.10,5.87,31.13,1027.23,2040.00,2835.11,2791.90,3036.24,348.51,324.10,9.66,0000 0000 0000 0000 000000
2013-12-22 00:43:16,0.19,1.86,0.00,24.86,27.48,30.14,5.94,31.38,1027.25,2040.00,2834.58,2791.41,3036.05,348.74,324.14,9.67,0000 0000 0000 0000 000000
2013-12-22 00:44:16,0.24,1.86,0.00,24.82,27.48,30.16,5.95,31.71,1027.25,2040.00,2834.21,2791.14,3035.60,349.92,325.28,9.68,0000 0000 0000 0000 000000
2013-12-22 00:45:17,0.20,1.87,0.00,24.81,27.48,30.16,5.97,31.58,1027.20,2040.00,2833.87,2790.91,3035.22,349.88,325.25,9.68,0000 0000 0000 0000 000000
2013-12-22 00:46:17,0.19,1.87,0.00,24.98,27.48,30.15,5.98,31.29,1027.16,2040.00,2833.44,2790.44,3035.05,350.24,325.10,9.69,0000 0000 0000 0000 000000
2013-12-22 00:47:17,0.21,1.87,0.00,25.00,27.48,30.17,5.96,31.38,1027.18,2040.00,2833.16,2790.16,3034.67,350.23,325.36,9.69,0000 0000 0000 0000 000000
2013-12-22 00:48:18,0.17,1.87,0.00,25.07,27.49,30.15,5.87,31.54,1027.22,2040.00,2832.83,2790.05,3034.25,348.72,323.89,9.70,0000 0000 0000 0000 000000
2013-12-22 00:49:18,0.16,1.87,0.00,25.03,27.49,30.19,6.02,31.46,1027.28,2040.01,2832.32,2789.87,3034.08,349.52,324.69,9.71,0000 0000 0000 0000 000000
2013-12-22 00:50:18,0.18,1.87,0.00,24.91,27.49,30.13,5.89,31.33,1027.24,2040.01,2832.12,2789.40,3033.68,350.18,325.44,9.71,0000 0000 0000 0000 000000
2013-12-22 00:51:18,0.20,1.87,0.00,24.89,27.49,30.12,6.19,31.46,1027.21,2040.00,2831.87,2789.15,3033.26,350.78,326.00,9.72,0000 0000 0000 0000 000000
2013-12-22 00:52:18,0.17,1.87,0.00,24.91,27.49,30.12,6.00,31.63,1027.13,2040.00,2831.35,2789.03,3033.07,349.47,324.73,9.72,0000 0000 0000 0000 000000
2013-12-22 00:53:19,0.17,1.87,0.00,24.91,27.49,30.16,5.92,31.46,1027.13,2040.00,2831.08,2788.61,3032.62,348.66,323.98,9.73,0000 0000 0000 0000 000000
2013-12-22 00:54:19,0.22,1.87,0.00,24.89,27.49,30.18,6.12,31.29,1027.19,2040.00,2830.54,2788.23,3032.24,350.60,325.83,9.73,0000 0000 0000 0000 000000
2013-12-22 00:55:19,0.24,1.88,0.00,25.01,27.49,30.14,5.97,31.54,1027.14,2040.00,2830.14,2788.07,3032.07,349.09,324.27,9.74,0000 0000 0000 0000 000000
2013-12-22 00:56:19,0.17,1.88,0.00,24.93,27.49,30.20,5.82,31.21,1027.15,2040.00,2829.58,2787.69,3031.77,349.03,324.21,9.75,0000 0000 0000 0000 000000
2013-12-22 00:57:20,0.23,1.88,0.00,24.88,27.49,30.14,5.84,31.71,1027.24,2040.00,2829.18,2787.28,3031.33,348.22,323.63,9.75,0000 0000 0000 0000 000000
2013-12-22 00:58:20,0.26,1.88,0.00,24.84,27.49,30.16,6.11,31.54,1027.27,2040.00,2828.61,2787.03,3031.08,350.72,326.02,9.76,0000 0000 0000 0000 000000
2013-12-22 00:59:20,0.21,1.88,0.00,24.89,27.49,30.16,6.07,31.63,1027.26,2040.00,2828.22,2786.52,3030.56,349.83,325.25,9.76,0000 0000 0000 0000 000000
2013-12-22 01:00:21,0.25,1.88,0.00,25.02,27.49,30.17,6.09,31.50,1027.29,2040.00,2827.91,2786.20,3030.20,350.00,325.15,9.77,0000 0000 0000 0000 000000
2013-12-22 01:01:21,0.20,1.88,0.00,25.05,27.49,30.19,6.07,31.92,1027.25,2040.00,2827.30,2785.97,3029.96,350.14,325.46,9.78,0000 0000 0000 0000 000000
2013-12-22 01:02:21,0.24,1.89,0.00,25.08,27.49,30.21,5.95,31.46,1027.28,2040.00,2826.56,2785.47,3029.46,349.69,324.79,9.78,0000 0000 0000 0000 000000
2013-12-22 01:03:22,0.30,1.89,0.00,24.99,27.49,30.23,6.01,31.58,1027.22,2040.00,2826.20,2785.17,3029.15,349.69,324.88,9.79,0000 0000 0000 0000 000000
2013-12-22 01:04:22,0.20,1.89,0.00,24.90,27.49,30.23,6.10,31.75,1027.20,2040.00,2825.82,2784.85,3028.58,350.80,325.99,9.79,0000 0000 0000 0000 000000
2013-12-22 01:05:22,0.25,1.89,0.00,25.01,27.49,30.19,5.93,31.38,1027.25,2040.00,2825.32,2784.36,3028.21,350.24,325.37,9.80,0000 0000 0000 0000 000000
2013-12-22 01:06:22,0.25,1.89,0.00,25.02,27.49,30.16,6.05,31.63,1027.29,2040.00,2824.90,2784.13,3028.06,350.14,325.27,9.80,0000 0000 0000 0000 000000
2013-12-22 01:07:23,0.17,1.89,0.00,24.99,27.49,30.18,6.09,31.54,1027.28,2040.00,2824.38,2784.01,3027.65,350.58,325.68,9.81,0000 0000 0000 0000 000000
2013-12-22 01:08:23,0.19,1.90,0.00,24.97,27.49,30.16,6.04,31.54,1027.23,2040.00,2824.13,2783.60,3027.24,350.34,325.51,9.82,0000 0000 0000 0000 000000
2013-12-22 01:09:23,0.20,1.90,0.00,25.07,27.49,30.19,6.05,31.83,1027.26,2040.00,2823.92,2783.24,3027.08,349.51,324.64,9.82,0000 0000 0000 0000 000000
2013-12-22 01:10:24,0.17,1.90,0.00,25.05,27.50,30.18,6.00,31.54,1027.23,2040.00,2823.45,2783.07,3026.72,350.64,325.68,9.83,0000 0000 0000 0000 000000
2013-12-22 01:11:24,0.16,1.90,0.00,25.07,27.50,30.13,5.86,31.46,1027.17,2040.00,2823.16,2782.87,3026.28,349.62,324.99,9.83,0000 0000 0000 0000 000000
2013-12-22 01:12:24,0.18,1.90,0.00,25.13,27.50,30.13,5.97,31.67,1027.29,2040.00,2822.91,2782.40,3026.09,349.79,324.83,9.84,0000 0000 0000 0000 000000
2013-12-22 01:13:24,0.19,1.90,0.00,25.15,27.49,30.21,6.19,31.75,1027.34,2040.00,2822.41,2782.15,3025.86,350.73,325.76,9.85,0000 0000 0000 0000 000000
2013-12-22 01:14:25,0.18,1.90,0.00,25.13,27.49,30.18,6.02,31.25,1027.34,2040.00,2822.15,2782.02,3025.36,350.72,325.13,9.85,0000 0000 0000 0000 000000
2013-12-22 01:15:25,0.14,1.90,0.00,25.09,27.50,30.15,6.01,31.67,1027.33,2040.00,2821.84,2781.72,3025.13,349.36,324.44,9.86,0000 0000 0000 0000 000000
2013-12-22 01:16:25,0.19,1.90,0.00,24.99,27.50,30.19,5.98,31.29,1027.32,2040.00,2821.34,2781.30,3025.00,350.18,325.50,9.86,0000 0000 0000 0000 000000
2013-12-22 01:17:25,0.22,1.90,0.00,25.00,27.50,30.19,6.00,31.63,1027.30,2040.00,2821.08,2781.10,3024.49,350.48,325.80,9.87,0000 0000 0000 0000 000000
2013-12-22 01:18:26,0.16,1.91,0.00,25.10,27.49,30.18,6.07,31.50,1027.31,2040.00,2820.68,2780.97,3024.18,350.20,325.22,9.88,0000 0000 0000 0000 000000
2013-12-22 01:19:26,0.18,1.91,0.00,25.09,27.50,30.16,5.81,31.08,1027.29,2040.00,2820.25,2780.49,3024.03,348.62,324.30,9.88,0000 0000 0000 0000 000000
2013-12-22 01:20:26,0.20,1.91,0.00,25.02,27.50,30.11,5.98,31.63,1027.33,2040.00,2820.02,2780.19,3023.69,349.54,324.86,9.89,0000 0000 0000 0000 000000
2013-12-22 01:21:26,0.19,1.91,0.00,25.03,27.50,30.11,6.14,31.50,1027.30,2040.00,2819.47,2780.06,3023.28,350.52,325.75,9.89,0000 0000 0000 0000 000000
2013-12-22 01:22:26,0.18,1.91,0.00,25.09,27.50,30.17,5.88,31.38,1027.28,2040.00,2819.13,2779.74,3023.09,348.60,323.77,9.90,0000 0000 0000 0000 000000
2013-12-22 01:23:27,0.19,1.91,0.00,25.08,27.50,30.20,6.05,31.33,1027.26,2040.00,2818.67,2779.29,3022.65,350.25,325.31,9.90,0000 0000 0000 0000 000000
2013-12-22 01:24:27,0.25,1.91,0.00,25.03,27.50,30.14,5.85,31.29,1027.16,2040.00,2818.24,2779.09,3022.24,349.33,324.01,9.91,0000 0000 0000 0000 000000
2013-12-22 01:25:27,0.19,1.91,0.00,24.99,27.50,30.16,6.04,31.50,1027.23,2040.00,2817.88,2778.89,3022.08,349.97,325.14,9.92,0000 0000 0000 0000 000000
2013-12-22 01:26:28,0.18,1.92,0.00,25.02,27.50,30.11,6.01,31.58,1027.14,2040.00,2817.37,2778.41,3021.82,350.32,325.40,9.92,0000 0000 0000 0000 000000
2013-12-22 01:27:28,0.24,1.92,0.00,25.02,27.49,30.10,5.84,31.17,1027.22,2040.00,2817.12,2778.15,3021.34,349.54,324.69,9.93,0000 0000 0000 0000 000000
2013-12-22 01:28:28,0.18,1.92,0.00,24.99,27.50,30.14,5.85,31.46,1027.26,2040.00,2816.65,2778.05,3021.11,348.94,324.50,9.93,0000 0000 0000 0000 000000
2013-12-22 01:29:28,0.14,1.92,0.00,25.11,27.49,30.16,5.76,31.42,1027.29,2040.00,2816.25,2777.71,3020.91,348.27,323.46,9.94,0000 0000 0000 0000 000000
2013-12-22 01:30:29,0.20,1.92,0.00,25.15,27.49,30.15,5.92,31.33,1027.26,2040.00,2816.07,2777.27,3020.43,350.11,325.10,9.95,0000 0000 0000 0000 000000
2013-12-22 01:31:29,0.21,1.92,0.00,25.14,27.50,30.17,5.91,31.54,1027.25,2040.00,2815.65,2777.10,3020.16,349.32,324.38,9.95,0000 0000 0000 0000 000000
2013-12-22 01:32:29,0.15,1.92,0.00,25.13,27.49,30.18,5.98,31.54,1027.29,2040.00,2815.25,2776.97,3020.03,350.22,325.13,9.96,0000 0000 0000 0000 000000
2013-12-22 01:33:29,0.15,1.92,0.00,25.02,27.50,30.13,5.93,31.33,1027.29,2040.00,2815.02,2776.49,3019.61,349.49,324.67,9.96,0000 0000 0000 0000 000000
2013-12-22 01:34:30,0.23,1.92,0.00,24.99,27.50,30.13,5.90,31.13,1027.29,2040.00,2814.48,2776.17,3019.23,349.98,325.16,9.97,0000 0000 0000 0000 000000
2013-12-22 01:35:30,0.22,1.92,0.00,24.94,27.49,30.13,6.05,31.38,1027.25,2040.00,2814.16,2776.05,3019.08,351.30,326.42,9.97,0000 0000 0000 0000 000000
2013-12-22 01:36:30,0.12,1.93,0.00,25.02,27.49,30.13,5.93,31.13,1027.29,2040.00,2813.72,2775.83,3018.85,350.30,325.43,9.98,0000 0000 0000 0000 000000
2013-12-22 01:37:30,0.20,1.93,0.00,25.14,27.49,30.17,5.95,31.67,1027.26,2040.00,2813.28,2775.38,3018.36,350.82,325.68,9.99,0000 0000 0000 0000 000000
2013-12-22 01:38:31,0.24,1.93,0.00,25.12,27.49,30.18,6.04,31.46,1027.28,2040.00,2813.09,2775.14,3018.13,350.04,324.86,9.99,0000 0000 0000 0000 000000
2013-12-22 01:39:31,0.14,1.93,0.00,25.08,27.49,30.16,5.95,31.17,1027.29,2040.00,2812.63,2775.03,3017.95,350.28,325.71,10.00,0000 0000 0000 0000 000000
2013-12-22 01:40:31,0.15,1.93,0.00,25.10,27.49,30.16,6.07,31.17,1027.32,2040.00,2812.23,2774.68,3017.44,351.30,325.91,10.00,0000 0000 0000 0000 000000
2013-12-22 01:41:31,0.22,1.93,0.00,25.03,27.49,30.16,6.08,31.79,1027.30,2040.00,2812.05,2774.28,3017.15,350.47,325.58,10.01,0000 0000 0000 0000 000000
2013-12-22 01:42:32,0.17,1.93,0.00,25.05,27.49,30.13,5.97,31.88,1027.30,2040.00,2811.60,2774.09,3016.98,350.12,325.22,10.02,0000 0000 0000 0000 000000
2013-12-22 01:43:32,0.17,1.93,0.00,25.04,27.49,30.14,5.96,32.08,1027.33,2040.00,2811.21,2773.80,3016.48,350.14,325.27,10.02,0000 0000 0000 0000 000000
2013-12-22 01:44:32,0.24,1.94,0.00,25.12,27.49,30.17,5.83,31.67,1027.35,2040.00,2810.71,2773.32,3016.18,348.68,323.83,10.03,0000 0000 0000 0000 000000
2013-12-22 01:45:33,0.23,1.94,0.00,25.04,27.48,30.15,5.98,31.63,1027.34,2040.00,2810.27,2773.11,3016.02,348.77,324.00,10.03,0000 0000 0000 0000 000000
2013-12-22 01:46:33,0.14,1.94,0.00,25.00,27.49,30.15,6.04,32.00,1027.31,2039.99,2809.91,2772.89,3015.59,350.21,325.38,10.04,0000 0000 0000 0000 000000
2013-12-22 01:47:33,0.23,1.94,0.00,25.03,27.48,30.18,5.80,31.79,1027.30,2039.99,2809.36,2772.42,3015.23,348.98,324.20,10.05,0000 0000 0000 0000 000000
2013-12-22 01:48:33,0.23,1.94,0.00,24.97,27.48,30.18,5.98,31.54,1027.29,2039.99,2809.12,2772.16,3015.08,349.99,325.19,10.05,0000 0000 0000 0000 000000
2013-12-22 01:49:34,0.13,1.94,0.00,25.02,27.48,30.16,5.91,31.29,1027.31,2039.99,2808.62,2772.03,3014.83,349.28,324.49,10.06,0000 0000 0000 0000 000000
2013-12-22 01:50:34,0.18,1.94,0.00,25.02,27.48,30.14,6.06,31.75,1027.31,2039.99,2808.23,2771.64,3014.34,350.97,326.07,10.06,0000 0000 0000 0000 000000
2013-12-22 01:51:34,0.24,1.94,0.00,25.06,27.48,30.13,6.08,31.71,1027.32,2039.99,2807.91,2771.25,3014.12,350.02,324.88,10.07,0000 0000 0000 0000 000000
2013-12-22 01:52:35,0.20,1.94,0.00,25.11,27.48,30.13,6.00,31.46,1027.31,2039.99,2807.41,2771.09,3013.87,350.31,325.56,10.07,0000 0000 0000 0000 000000
2013-12-22 01:53:35,0.17,1.95,0.00,24.98,27.48,30.14,5.93,31.25,1027.31,2039.98,2807.11,2770.78,3013.38,350.64,325.79,10.08,0000 0000 0000 0000 000000
2013-12-22 01:54:35,0.23,1.95,0.00,24.99,27.48,30.11,5.87,31.13,1027.35,2039.99,2806.57,2770.31,3013.13,349.16,324.42,10.09,0000 0000 0000 0000 000000
2013-12-22 01:55:36,0.23,1.95,0.00,25.08,27.48,30.11,6.06,31.54,1027.33,2039.99,2806.22,2770.11,3012.85,349.60,325.12,10.09,0000 0000 0000 0000 000000
2013-12-22 01:56:36,0.17,1.95,0.00,25.07,27.48,30.15,5.99,31.71,1027.32,2039.98,2806.03,2769.95,3012.33,349.91,325.53,10.10,0000 0000 0000 0000 000000
2013-12-22 01:57:36,0.16,1.95,0.00,25.04,27.48,30.11,6.00,31.46,1027.32,2039.99,2805.59,2769.50,3012.12,351.28,325.96,10.10,0000 0000 0000 0000 000000
2013-12-22 01:58:36,0.22,1.95,0.00,25.01,27.48,30.13,5.98,31.83,1027.33,2039.99,2805.22,2769.19,3011.84,349.72,325.04,10.11,0000 0000 0000 0000 000000
2013-12-22 01:59:37,0.20,1.95,0.00,24.93,27.48,30.11,6.03,31.67,1027.30,2039.99,2804.93,2769.07,3011.39,349.46,324.75,10.12,0000 0000 0000 0000 000000
2013-12-22 02:00:37,0.16,1.95,0.00,24.99,27.48,30.13,5.98,32.00,1027.25,2039.99,2804.39,2768.78,3011.13,349.67,324.86,10.12,0000 0000 0000 0000 000000
2013-12-22 02:01:37,0.21,1.96,0.00,24.93,27.48,30.17,6.06,31.75,1027.14,2039.98,2804.14,2768.35,3010.93,350.62,325.77,10.13,0000 0000 0000 0000 000000
2013-12-22 02:02:38,0.19,1.96,0.00,24.93,27.48,30.15,5.97,31.50,1027.27,2039.98,2803.90,2768.12,3010.43,349.78,325.04,10.13,0000 0000 0000 0000 000000
2013-12-22 02:03:38,0.18,1.96,0.00,24.97,27.47,30.12,5.89,31.58,1027.32,2039.99,2803.36,2768.00,3010.16,349.41,324.78,10.14,0000 0000 0000 0000 000000
2013-12-22 02:04:38,0.18,1.96,0.00,25.04,27.47,30.18,6.02,31.58,1027.35,2039.99,2803.10,2767.57,3010.04,349.09,324.31,10.14,0000 0000 0000 0000 000000
2013-12-22 02:05:38,0.18,1.96,0.00,25.24,27.47,30.16,5.90,31.58,1027.34,2039.99,2802.55,2767.24,3009.75,348.99,324.00,10.15,0000 0000 0000 0000 000000
2013-12-22 02:06:39,0.23,1.96,0.00,25.29,27.47,30.17,6.02,31.46,1027.34,2039.99,2802.20,2767.09,3009.29,350.47,325.31,10.16,0000 0000 0000 0000 000000
2013-12-22 02:07:39,0.16,1.96,0.00,25.27,27.47,30.16,5.97,31.38,1027.34,2039.98,2801.95,2766.85,3009.10,349.46,324.22,10.16,0000 0000 0000 0000 000000
2013-12-22 02:08:39,0.17,1.96,0.00,25.22,27.48,30.16,6.10,31.83,1027.34,2039.99,2801.43,2766.36,3008.74,349.21,324.21,10.17,0000 0000 0000 0000 000000
2013-12-22 02:09:39,0.25,1.96,0.00,25.22,27.47,30.15,6.02,31.58,1027.36,2039.99,2801.15,2766.13,3008.30,350.35,325.19,10.17,0000 0000 0000 0000 000000
2013-12-22 02:10:39,0.17,1.97,0.00,25.17,27.48,30.15,6.05,31.38,1027.36,2039.98,2800.80,2766.00,3008.10,349.87,324.88,10.18,0000 0000 0000 0000 000000
2013-12-22 02:11:40,0.13,1.97,0.00,25.12,27.48,30.19,6.02,31.63,1027.36,2039.99,2800.31,2765.61,3007.94,350.87,325.87,10.19,0000 0000 0000 0000 000000
2013-12-22 02:12:40,0.22,1.97,0.00,25.14,27.48,30.19,5.92,31.25,1027.36,2039.99,2800.05,2765.23,3007.45,349.34,324.42,10.19,0000 0000 0000 0000 000000
2013-12-22 02:13:40,0.22,1.97,0.00,25.12,27.48,30.19,5.89,31.50,1027.35,2039.98,2799.48,2765.06,3007.16,350.08,325.13,10.20,0000 0000 0000 0000 000000
2013-12-22 02:14:40,0.18,1.97,0.00,25.09,27.47,30.20,6.06,32.13,1027.35,2039.99,2799.16,2764.76,3007.05,350.19,325.27,10.20,0000 0000 0000 0000 000000
2013-12-22 02:15:40,0.19,1.97,0.00,25.16,27.48,30.20,5.94,31.58,1027.32,2039.99,2798.73,2764.30,3006.78,349.58,325.00,10.21,0000 0000 0000 0000 000000
2013-12-22 02:16:41,0.24,1.97,0.00,25.17,27.48,30.16,6.12,31.75,1027.33,2039.99,2798.27,2764.11,3006.33,350.07,325.13,10.22,0000 0000 0000 0000 000000
2013-12-22 02:17:41,0.18,1.97,0.00,25.20,27.48,30.15,6.00,31.75,1027.34,2039.99,2797.91,2763.97,3006.12,350.47,325.40,10.22,0000 0000 0000 0000 000000
2013-12-22 02:18:41,0.16,1.97,0.00,25.15,27.47,30.12,5.97,31.54,1027.32,2039.99,2797.37,2763.50,3005.92,349.75,324.80,10.23,0000 0000 0000 0000 000000
2013-12-22 02:19:41,0.23,1.98,0.00,25.20,27.47,30.13,6.15,31.50,1027.33,2039.99,2797.07,2763.20,3005.44,351.83,326.67,10.23,0000 0000 0000 0000 000000
2013-12-22 02:20:42,0.20,1.98,0.00,25.15,27.48,30.18,6.13,31.75,1027.32,2039.99,2796.51,2763.05,3005.17,351.22,326.16,10.24,0000 0000 0000 0000 000000
2013-12-22 02:21:42,0.17,1.98,0.00,25.11,27.48,30.17,6.00,31.50,1027.30,2039.99,2796.18,2762.71,3004.98,350.82,325.82,10.24,0000 0000 0000 0000 000000
2013-12-22 02:22:42,0.21,1.98,0.00,25.14,27.47,30.18,5.97,31.54,1027.29,2039.99,2796.05,2762.28,3004.50,350.34,325.33,10.25,0000 0000 0000 0000 000000
2013-12-22 02:23:42,0.19,1.98,0.00,25.23,27.47,30.17,6.00,31.50,1027.24,2039.99,2795.75,2762.10,3004.19,349.93,324.85,10.26,0000 0000 0000 0000 000000
2013-12-22 02:24:43,0.15,1.98,0.00,25.30,27.48,30.16,6.07,31.75,1027.27,2039.99,2795.31,2761.97,3003.94,350.41,325.21,10.26,0000 0000 0000 0000 000000
2013-12-22 02:25:43,0.17,1.98,0.00,25.24,27.48,30.15,6.02,31.58,1027.28,2039.99,2795.11,2761.54,3003.43,349.90,324.81,10.27,0000 0000 0000 0000 000000
2013-12-22 02:26:43,0.23,1.98,0.00,25.20,27.48,30.15,5.99,31.71,1027.30,2039.98,2794.68,2761.20,3003.16,350.48,325.32,10.27,0000 0000 0000 0000 000000
2013-12-22 02:27:43,0.20,1.99,0.00,25.16,27.48,30.14,6.01,31.58,1027.26,2039.96,2794.22,2761.03,3002.97,350.12,324.92,10.28,0000 0000 0000 0000 000000
2013-12-22 02:28:43,0.14,1.99,0.00,25.23,27.48,30.14,6.01,31.58,1027.17,2039.98,2793.68,2760.66,3002.56,350.02,324.92,10.29,0000 0000 0000 0000 000000
2013-12-22 02:29:44,0.31,1.99,0.00,25.18,27.48,30.13,6.05,31.79,1027.08,2039.99,2793.25,2760.25,3002.22,350.33,325.21,10.29,0000 0000 0000 0000 000000
2013-12-22 02:30:44,0.21,1.99,0.00,25.15,27.48,30.12,6.01,31.33,1027.04,2039.99,2792.84,2760.08,3002.07,349.94,324.98,10.30,0000 0000 0000 0000 000000
2013-12-22 02:31:44,0.15,1.99,0.00,25.15,27.48,30.12,6.03,31.54,1027.11,2039.99,2792.31,2759.86,3001.85,350.52,325.91,10.30,0000 0000 0000 0000 000000
2013-12-22 02:32:45,0.21,1.99,0.00,25.23,27.48,30.13,5.93,31.79,1027.06,2039.99,2792.06,2759.37,3001.36,349.07,323.98,10.31,0000 0000 0000 0000 000000
2013-12-22 02:33:45,0.24,1.99,0.00,25.31,27.48,30.14,6.13,31.92,1027.12,2039.99,2791.52,2759.13,3001.13,350.39,325.14,10.31,0000 0000 0000 0000 000000
2013-12-22 02:34:45,0.18,1.99,0.00,25.33,27.48,30.14,5.93,31.58,1027.10,2039.99,2791.18,2758.95,3000.90,349.69,324.90,10.32,0000 0000 0000 0000 000000
2013-12-22 02:35:45,0.18,1.99,0.00,25.22,27.48,30.19,5.92,31.75,1027.15,2039.99,2790.78,2758.45,3000.39,349.41,324.33,10.33,0000 0000 0000 0000 000000
2013-12-22 02:36:45,0.28,2.00,0.00,25.22,27.48,30.19,5.97,31.29,1027.17,2039.99,2790.30,2758.16,3000.13,349.85,324.53,10.33,0000 0000 0000 0000 000000